COSMOS 2432 (GLONASS)

Satellite information

Favourite Embed

Satellite Type and Status

PAYLOADIN ORBIT

Key statistics

Satellite COSMOS 2432 (GLONASS) at a glance.

Uptime

6526

Days in orbit

Revolutions

≈ 2.1

Per day

Orbit

MEO

Medium Earth Orbit

Inclination

65.7

Latest

Satellite identification and parameters

Extended collection of information and parameters for COSMOS 2432 (GLONASS).

Object identification

Identified? True

Debris? False

Object name: COSMOS 2432 (GLONASS)

International designator: 2007-052B

Object number (NORAD): 32276

Object ID (CCSDS): 32276

Country: COMMONWEALTH OF INDEPENDENT STATES (CIS)

Current information (Y/N): Y

RCS size: LARGE

Orbital parameters

Period: 675.729 minutes

Inclination: 65.749 deg

SMA: 25507.936 km

Apoapsis: 19152.02 km

Periapsis: 19107.582 km

RAAN: 325.6245 deg

Eccentricy: 0.00087107

Argument of periapsis: 309.8722 deg

Mean anomaly: 50.4287 deg

Mean motion: 2.1310311 rev/day

Mean motion (dot): -0.00000036 rev/day2

B* drag term: 0.0 1/REarth

Two-line elements (TLE)

Creation date: Sept. 5, 2025, 7:38 p.m.

Reference frame: TEME

Reference center: EARTH

Epoch: Sept. 5, 2025, 2:49 p.m. UTC

TLE line 0: 0 COSMOS 2432 (GLONASS)

TLE line 1: 1 32276U 07052B 25248.61760133 -.00000036 00000-0 00000-0 0 9992

TLE line 2: 2 32276 65.7490 325.6245 0008711 309.8722 50.4287 2.13103110139021

Live tracking on map

Real-time ground track for satellite COSMOS 2432 (GLONASS).

In-orbit conjunctions

There are no conjunctions computed for COSMOS 2432 (GLONASS), at the moment. Check back to stay up to date, as we update our databases every day.

Go to all conjunctions

Associated space launch

GLONASS navigation satellites

COSMOS 2432 (GLONASS) was lifted into orbit during the mission ‘Proton | Uragan-M 9 to 11’, on board a Proton space rocket.

The launch took place on Oct. 26, 2007, 7:35 a.m. from 81/24 (81P).

For more information about the launch, click the button.

Launch to space Proton | Uragan-M 9 to 11
Proton | Uragan-M 9 to 11

Agency: N/A

Status: Launch Successful

Launch date: Oct. 26, 2007, 7:35 a.m. UTC

Rocket: Proton

Launch pad: 81/24 (81P)

Location: Baikonur Cosmodrome, Republic of Kazakhstan

...

Latest news about this satellite

There are no fresh news available about this satellite. Check back as we update our databases every day.


Newsletter sign-up

Weekly statistics, charts and insights to help you stay on top of the space industry.